[[{"header":{"parameterUnit":"m.s-1","parameterCategory":1,"la1":30.2991,"la2":30.254,"lo1":-89.0895,"lo2":-89.0444,"dy":0.0017,"dx":0.0017,"nx":28,"ny":28,"refTime":"2024-12-17T03:00:00:Z","depth":0,"parameterNumber":2,"parameterNumberName":"U-component_of_WINDS"},"data":[0,0,0,0,0,0,0,0,0,0,0,0,0,0,0,0,0,0,0,0,0,0,0,0,0,0,0,0,0,0,0,0,0,0,0,0,0,0,0,0,0,0,0,0,0,0,0,0,0,0,0,0,0,0,0,0,0,0,0.5088,0.5088,0,0.5072,0.5071,0.5071,0.5049,0.5048,0.5048,0.5048,0.503,0.503,0.503,0,0,0,0,0,0,0,0,0,0,0,0,0,0.5101,0.5101,0.5088,0.5088,0.5088,0.5072,0.5071,0.5071,0.5049,0.5048,0.5048,0.5048,0.503,0.503,0.503,0,0,0,0,0,0,0,0,0,0,0,0,0,0.5091,0.5101,0.5088,0.5075,0.5074,0.5072,0.5071,0.5071,0.5049,0.5048,0.5048,0.5047,0.503,0.503,0.503,0.5039,0,0,0.5029,0.5029,0,0,0,0,0,0,0,0,0.5091,0.509,0.5077,0.5076,0.5074,0.5062,0.5069,0.506,0.5049,0.5058,0.5048,0.5047,0.5041,0.504,0.5038,0.5038,0.5038,0.5029,0.5029,0.5029,0.5029,0,0,0,0,0,0,0,0.5092,0.5091,0.5082,0.5077,0.5075,0.507,0.5068,0.5067,0.5053,0.5057,0.5056,0.5054,0.504,0.5038,0.5037,0.5037,0.5029,0.5029,0.5029,0.5028,0.5045,0.5046,0,0,0,0,0,0,0.5095,0.5092,0.5082,0.5081,0.5082,0.507,0.5068,0.5066,0.5053,0.505,0.5055,0.5053,0.5039,0.5037,0.5036,0.5047,0.5029,0.5028,0.5028,0.5045,0.5046,0.5046,0,0,0,0,0,0,0.5095,0.5094,0.5083,0.5086,0.5084,0.507,0.5069,0.5066,0.5064,0.5051,0.5048,0.5055,0.5038,0.5037,0.5039,0.5046,0.5028,0.5028,0.5044,0.5045,0.5046,0.5068,0,0,0,0,0,0,0.5096,0.5095,0.5098,0.5086,0.5084,0.5086,0.5069,0.5066,0.5064,0.5062,0.5051,0.5048,0.5038,0.5039,0.5039,0.5045,0.5028,0.5043,0.5045,0.5046,0.5067,0.5069,0.5072,0,0,0,0,0,0.5096,0.5105,0.5098,0.5097,0.5088,0.5086,0.5085,0.5073,0.5065,0.5068,0.506,0.5048,0.5045,0.504,0.5039,0.5046,0.5043,0.5044,0.5045,0.5065,0.5069,0.5072,0,0,0,0,0,0,0.5118,0.5103,0.5096,0.5101,0.5095,0.5082,0.5086,0.5077,0.5073,0.5071,0.5056,0.5054,0.5058,0.5052,0.5046,0.5054,0.5043,0.5044,0.5058,0.5061,0.5064,0.5065,0.5028,0,0,0,0,0,0.5123,0.5123,0.511,0.5116,0.5113,0.51,0.5099,0.509,0.5083,0.5081,0.5072,0.5066,0.5063,0.5062,0.5059,0.5066,0.5063,0.507,0.5073,0.5075,0.5076,0.5079,0.5082,0.505,0.505,0.505,0,0,0.5134,0.5126,0.5127,0.512,0.5114,0.5114,0.5098,0.5099,0.5098,0.5081,0.5082,0.5076,0.5068,0.5072,0.5074,0.5067,0.5084,0.5077,0.5079,0.5078,0.5081,0.5084,0.5086,0.5051,0.5051,0.5051,0,0,0.5154,0.5148,0.5152,0.5147,0.5139,0.513,0.5131,0.512,0.5115,0.5117,0.5104,0.5103,0.5099,0.5094,0.5091,0.5109,0.5099,0.5109,0.5123,0.5126,0.5128,0.513,0.5137,0.5139,0.511,0.511,0.511,0,0.5168,0.5168,0.5155,0.5156,0.5154,0.5138,0.5142,0.5138,0.5129,0.5128,0.5121,0.5116,0.5109,0.5112,0.5117,0.5115,0.5115,0.511,0.5129,0.5131,0.5133,0.5139,0.5141,0.5111,0.5111,0.5111,0.5111,0,0.5186,0.5186,0.519,0.5182,0.518,0.5183,0.5171,0.517,0.5162,0.5154,0.5156,0.5147,0.5142,0.5143,0.5134,0.5144,0.5141,0.5132,0.512,0.5137,0.5142,0.5145,0.5113,0.5112,0.5112,0.5112,0,0,0.5218,0.5204,0.5205,0.5202,0.5192,0.5191,0.5194,0.5189,0.5189,0.5183,0.5184,0.5182,0.5174,0.517,0.5161,0.5164,0.5179,0.5155,0.5154,0.5159,0.5189,0.5196,0.5199,0.5172,0.5173,0.5173,0.519,0,0.5235,0.5238,0.5227,0.5233,0.5232,0.5218,0.5219,0.5214,0.5207,0.5205,0.5197,0.5196,0.5185,0.5183,0.5185,0.5177,0.5185,0.5176,0.5173,0.5173,0.5175,0.5201,0.5208,0.5224,0.5192,0.5192,0.5193,0,0.5256,0.5252,0.5257,0.5248,0.5247,0.5249,0.5244,0.5243,0.5236,0.5231,0.5227,0.5217,0.5218,0.5207,0.5208,0.5202,0.5201,0.5197,0.5197,0.5196,0.5183,0.52,0.5229,0.5231,0.5196,0.5195,0.5195,0,0.5278,0.5274,0.5277,0.5274,0.5263,0.5265,0.526,0.5253,0.5251,0.5247,0.5245,0.5241,0.5239,0.5236,0.5225,0.5218,0.5227,0.5215,0.5223,0.5223,0.5225,0.5225,0.5253,0.5225,0.5225,0.5225,0.5225,0,0.5298,0.5302,0.5287,0.5289,0.5293,0.528,0.5284,0.5278,0.5272,0.5272,0.526,0.526,0.5246,0.5245,0.5236,0.5238,0.5237,0.5233,0.5231,0.5234,0.5234,0.5232,0.523,0.5225,0.5225,0.5225,0.5225,0,0.5323,0.5313,0.5315,0.5305,0.5302,0.5306,0.5296,0.5297,0.529,0.529,0.529,0.5278,0.5276,0.5265,0.526,0.5255,0.526,0.5255,0.5262,0.526,0.5268,0.5267,0.5296,0.5299,0.5269,0.5269,0.527,0,0.5337,0.5339,0.5329,0.5328,0.5324,0.5324,0.5322,0.531,0.5308,0.5301,0.5303,0.53,0.5297,0.5294,0.5285,0.5282,0.5277,0.5287,0.5276,0.5279,0.5276,0.5276,0.5276,0.5289,0.5289,0.529,0.529,0,0.5361,0.5356,0.5354,0.535,0.5349,0.5345,0.5341,0.5341,0.5328,0.5327,0.5325,0.5322,0.5318,0.5315,0.531,0.5305,0.5295,0.5294,0.5295,0.5298,0.5302,0.5299,0.5268,0.5293,0.5293,0.5292,0.5292,0.5292,0.538,0.5382,0.5375,0.5373,0.5369,0.5365,0.5366,0.5359,0.5357,0.5352,0.5346,0.5344,0.5338,0.533,0.5326,0.5325,0.5319,0.5321,0.5322,0.5322,0.5324,0.5303,0.5324,0.5324,0.5324,0.5324,0.5324,0,0.5404,0.5399,0.5397,0.5392,0.539,0.5382,0.5377,0.5376,0.5375,0.537,0.5368,0.5365,0.5363,0.5354,0.535,0.5351,0.5346,0.535,0.5349,0.5348,0.5329,0.5328,0.5354,0.5354,0.5354,0.5354,0.5354,0.5354,0.5415,0.5418,0.5412,0.5412,0.5407,0.5406,0.5404,0.5401,0.5397,0.5395,0.5393,0.5387,0.538,0.5376,0.5373,0.5371,0.537,0.5375,0.5371,0.5353,0.535,0.5347,0.5346,0.5375,0.5375,0.539,0.539,0.539]},{"header":{"parameterUnit":"m.s-1","parameterCategory":1,"la1":30.2991,"la2":30.254,"lo1":-89.0895,"lo2":-89.0444,"dy":0.0017,"dx":0.0017,"nx":28,"ny":28,"refTime":"2024-12-17T03:00:00:Z","depth":0,"parameterNumber":3,"parameterNumberName":"V-component_of_WINDS"},"data":[0,0,0,0,0,0,0,0,0,0,0,0,0,0,0,0,0,0,0,0,0,0,0,0,0,0,0,0,0,0,0,0,0,0,0,0,0,0,0,0,0,0,0,0,0,0,0,0,0,0,0,0,0,0,0,0,0,0,-1.4603,-1.4603,0,-1.4643,-1.4643,-1.4644,-1.4641,-1.4641,-1.464,-1.464,-1.4677,-1.4679,-1.468,0,0,0,0,0,0,0,0,0,0,0,0,0,-1.4521,-1.4523,-1.4603,-1.4603,-1.4604,-1.4643,-1.4643,-1.4644,-1.4641,-1.4641,-1.464,-1.4639,-1.4677,-1.4678,-1.468,0,0,0,0,0,0,0,0,0,0,0,0,0,-1.4558,-1.4523,-1.4603,-1.4607,-1.4608,-1.4643,-1.4643,-1.4644,-1.4642,-1.4641,-1.464,-1.4639,-1.4676,-1.4678,-1.468,-1.4712,0,0,-1.4687,-1.4688,0,0,0,0,0,0,0,0,-1.4556,-1.4561,-1.4606,-1.4607,-1.4608,-1.4636,-1.4628,-1.4666,-1.4642,-1.4629,-1.464,-1.4639,-1.4664,-1.4667,-1.4676,-1.4713,-1.4715,-1.4688,-1.4689,-1.469,-1.4691,0,0,0,0,0,0,0,-1.4554,-1.456,-1.4618,-1.4607,-1.4608,-1.4606,-1.4611,-1.4635,-1.465,-1.463,-1.463,-1.4635,-1.4664,-1.4674,-1.4677,-1.4715,-1.4688,-1.469,-1.4691,-1.4692,-1.4781,-1.4781,0,0,0,0,0,0,-1.4551,-1.4558,-1.4617,-1.462,-1.458,-1.4609,-1.4613,-1.4628,-1.465,-1.4653,-1.4635,-1.4634,-1.4671,-1.4675,-1.4679,-1.4717,-1.469,-1.4692,-1.4693,-1.478,-1.4781,-1.4782,0,0,0,0,0,0,-1.4549,-1.4556,-1.4616,-1.4589,-1.4596,-1.4611,-1.4627,-1.4629,-1.4639,-1.4655,-1.4657,-1.4643,-1.467,-1.4675,-1.4704,-1.4718,-1.4693,-1.4695,-1.4778,-1.478,-1.4781,-1.4794,0,0,0,0,0,0,-1.4547,-1.4555,-1.4568,-1.4589,-1.4598,-1.4641,-1.4628,-1.4631,-1.4644,-1.4643,-1.4662,-1.4665,-1.467,-1.47,-1.4706,-1.4721,-1.4697,-1.4777,-1.4779,-1.4781,-1.4793,-1.4796,-1.4799,0,0,0,0,0,-1.4544,-1.4569,-1.4569,-1.4576,-1.4614,-1.4642,-1.4647,-1.4653,-1.4645,-1.4657,-1.4667,-1.4664,-1.4716,-1.4703,-1.471,-1.4726,-1.4776,-1.4779,-1.4781,-1.4791,-1.4795,-1.4799,0,0,0,0,0,0,-1.4548,-1.4572,-1.4572,-1.4605,-1.4622,-1.4642,-1.4658,-1.4657,-1.4676,-1.4674,-1.468,-1.4685,-1.4713,-1.4722,-1.4708,-1.4757,-1.4745,-1.4748,-1.4751,-1.4755,-1.4758,-1.4755,-1.4699,0,0,0,0,0,-1.4553,-1.4575,-1.4594,-1.4622,-1.463,-1.4643,-1.4655,-1.4659,-1.4676,-1.4682,-1.4694,-1.471,-1.473,-1.4742,-1.4761,-1.4794,-1.4798,-1.4808,-1.4811,-1.4813,-1.4817,-1.4835,-1.484,-1.4789,-1.4789,-1.4789,0,0,-1.4564,-1.4579,-1.4592,-1.4623,-1.4636,-1.4658,-1.4648,-1.4671,-1.4688,-1.4685,-1.4714,-1.4723,-1.4741,-1.4771,-1.4785,-1.478,-1.4832,-1.4816,-1.4818,-1.482,-1.4838,-1.4842,-1.4847,-1.4791,-1.479,-1.479,0,0,-1.4594,-1.4608,-1.4633,-1.4647,-1.4668,-1.4676,-1.4682,-1.4702,-1.4708,-1.4737,-1.4736,-1.4754,-1.4788,-1.4801,-1.4812,-1.4848,-1.4846,-1.4854,-1.4871,-1.4888,-1.4892,-1.4896,-1.4909,-1.4914,-1.4857,-1.4857,-1.4857,0,-1.4604,-1.4638,-1.4645,-1.4669,-1.4683,-1.4683,-1.4708,-1.4721,-1.4746,-1.4755,-1.4748,-1.4792,-1.4803,-1.4837,-1.4846,-1.4855,-1.4862,-1.4852,-1.4891,-1.4895,-1.4899,-1.4911,-1.4916,-1.4858,-1.4858,-1.4858,-1.4858,0,-1.4649,-1.4673,-1.469,-1.4717,-1.4732,-1.4756,-1.4766,-1.4781,-1.4783,-1.4792,-1.4821,-1.4835,-1.4857,-1.4866,-1.4867,-1.49,-1.4896,-1.489,-1.4878,-1.4904,-1.4916,-1.4921,-1.4859,-1.4859,-1.4859,-1.4858,0,0,-1.4683,-1.4714,-1.4721,-1.4733,-1.4756,-1.4774,-1.4798,-1.4821,-1.4834,-1.4851,-1.4871,-1.49,-1.4895,-1.4908,-1.4911,-1.4927,-1.4955,-1.4919,-1.4919,-1.4926,-1.4992,-1.4997,-1.5003,-1.4953,-1.4954,-1.4955,-1.4991,0,-1.4717,-1.4761,-1.4769,-1.4807,-1.4829,-1.483,-1.485,-1.4866,-1.4875,-1.4894,-1.4903,-1.4924,-1.4915,-1.4923,-1.4938,-1.4948,-1.4968,-1.4946,-1.4972,-1.4973,-1.4968,-1.5009,-1.5014,-1.5047,-1.4996,-1.4997,-1.4997,0,-1.4761,-1.4782,-1.4823,-1.4844,-1.4853,-1.4872,-1.4895,-1.4913,-1.4931,-1.4936,-1.495,-1.4952,-1.4976,-1.4963,-1.4996,-1.498,-1.4991,-1.4998,-1.4999,-1.5002,-1.4987,-1.5014,-1.5058,-1.5063,-1.5005,-1.5004,-1.5003,0,-1.4783,-1.4821,-1.485,-1.4861,-1.4886,-1.4899,-1.491,-1.4927,-1.4941,-1.496,-1.4969,-1.499,-1.5001,-1.5017,-1.5024,-1.5013,-1.5057,-1.5044,-1.5062,-1.5062,-1.5071,-1.5071,-1.5119,-1.5077,-1.5077,-1.5077,-1.5077,0,-1.482,-1.4845,-1.4861,-1.4879,-1.4907,-1.4915,-1.4943,-1.4953,-1.4968,-1.4988,-1.4989,-1.5007,-1.5015,-1.5034,-1.504,-1.5067,-1.5072,-1.5076,-1.5078,-1.5077,-1.5076,-1.5085,-1.5083,-1.5078,-1.5078,-1.5078,-1.5078,0,-1.485,-1.4861,-1.4894,-1.4915,-1.4921,-1.4941,-1.4959,-1.4976,-1.4985,-1.501,-1.5016,-1.5029,-1.5052,-1.5061,-1.5088,-1.5091,-1.5123,-1.5122,-1.5118,-1.5118,-1.5136,-1.5135,-1.5192,-1.52,-1.5152,-1.5152,-1.5153,0,-1.4873,-1.4892,-1.4917,-1.4931,-1.4942,-1.4965,-1.4979,-1.4987,-1.5002,-1.5025,-1.5039,-1.5062,-1.5081,-1.5118,-1.5129,-1.515,-1.515,-1.5168,-1.5153,-1.5152,-1.5151,-1.515,-1.5152,-1.5171,-1.5172,-1.5172,-1.5172,0,-1.4913,-1.4918,-1.4939,-1.4963,-1.4981,-1.4999,-1.5017,-1.5028,-1.5039,-1.5056,-1.508,-1.5095,-1.5123,-1.5146,-1.5168,-1.5178,-1.5177,-1.5177,-1.5183,-1.5182,-1.518,-1.5182,-1.5126,-1.5176,-1.5176,-1.5175,-1.5175,-1.5175,-1.494,-1.4958,-1.4979,-1.5003,-1.5017,-1.5034,-1.5052,-1.5064,-1.5084,-1.511,-1.5113,-1.5139,-1.5156,-1.5185,-1.5196,-1.5216,-1.5211,-1.5219,-1.5221,-1.5223,-1.5225,-1.5176,-1.522,-1.522,-1.522,-1.522,-1.522,0,-1.4981,-1.4995,-1.5017,-1.5043,-1.5062,-1.506,-1.508,-1.5096,-1.5119,-1.5136,-1.5156,-1.5183,-1.5206,-1.5219,-1.5241,-1.5255,-1.5255,-1.526,-1.526,-1.5262,-1.5228,-1.5221,-1.526,-1.526,-1.526,-1.526,-1.526,-1.526,-1.5005,-1.5036,-1.5043,-1.5081,-1.5093,-1.512,-1.5132,-1.5148,-1.5161,-1.5193,-1.5212,-1.5221,-1.5237,-1.526,-1.528,-1.5284,-1.5292,-1.5298,-1.5301,-1.5269,-1.5265,-1.5261,-1.5255,-1.53,-1.53,-1.5334,-1.5335,-1.5335]}]]